Weather History for Bluefield, WV

Change the Weather History Date:

Wednesday, November 27, 2013

  Actual Average Record
Temperature  
Mean Temperature 28 °F 43 °F  
Max Temperature 36 °F 51 °F 75 °F (1990)
Min Temperature 19 °F 35 °F 12 °F (1977)
Degree Days  
Heating Degree Days 37 22  
Month to date heating degree days 545 471  
Since 1 July heating degree days 853 835  
Cooling Degree Days 0 0  
Month to date cooling degree days 0 0  
Year to date cooling degree days 938 851  
Moisture  
Dew Point 19 °F    
Average Humidity 76    
Maximum Humidity 85    
Minimum Humidity 67    
Precipitation  
Precipitation 0.16 in 0.09 in 0.79 in (1993)
Month to date precipitation 3.17 2.40  
Year to date precipitation 37.01 36.43  
Snow  
Snow 3.20 in - - ()
Month to date snowfall 3.4  
Since 1 July snowfall 3.6  
Since 1 September snowfall 3.6  
Snow Depth 3.00 in    
Sea Level Pressure  
Sea Level Pressure 29.85 in    
Wind  
Wind Speed 12 mph (NW)    
Max Wind Speed 23 mph    
Max Gust Speed 33 mph    
Visibility 3 miles    
Events Rain , Snow    
T = Trace of Precipitation, MM = Missing Value Source: NWS Daily Summary

Daily Weather History Graph

Daily Weather History Graph

Search for Another Location

Airport:

Trip Planner

Search our weather history database for the weather conditions in past years. The results will help you decide how hot, cold, wet, or windy it might be!

Date:

Astronomy

Nov. 27, 2013 Rise Set
Actual Time 7:16 AM EST 5:08 PM EST
Civil Twilight 6:48 AM EST 5:36 PM EST
Nautical Twilight 6:15 AM EST 6:08 PM EST
Astronomical Twilight 5:44 AM EST 6:40 PM EST
Moon 1:24 AM EST (11/27) 1:38 PM EST (11/27)
Length of Visible Light 10h 48m
Length of Day
9h 51m
Waning Crescent, 32% of the Moon is Illuminated
Nov 27
Waning Crescent
Dec 2
New
Dec 9
First Quarter
Dec 17
Full
Dec 25
Last Quarter

Hourly Weather History & Observations

Time (EST) Temp. Windchill Dew Point Humidity Pressure Visibility Wind Dir Wind Speed Gust Speed Precip Events Conditions
12:09 AM 35.6 °F 27.1 °F 32.0 °F 87% 29.71 in 9.0 mi West 12.7 mph 20.7 mph N/A   Overcast
12:52 AM 35.1 °F 27.4 °F 30.9 °F 85% 29.70 in 10.0 mi WNW 10.4 mph - N/A   Overcast
1:20 AM 33.8 °F 25.3 °F 30.2 °F 87% 29.69 in 4.0 mi WNW 11.5 mph 19.6 mph 0.00 in Rain Light Rain
1:52 AM 34.0 °F 25.5 °F 28.9 °F 82% 29.70 in 6.0 mi NW 11.5 mph - 0.03 in Snow Light Snow
2:06 AM 33.8 °F 24.8 °F 28.4 °F 81% 29.70 in 5.0 mi WNW 12.7 mph - 0.00 in Snow Light Snow
2:28 AM 33.8 °F 25.3 °F 28.4 °F 81% 29.70 in 2.0 mi WNW 11.5 mph - 0.01 in Snow Light Snow
2:43 AM 33.8 °F 25.8 °F 28.4 °F 81% 29.70 in 1.5 mi NW 10.4 mph - 0.02 in Snow Light Snow
2:52 AM 32.0 °F 24.8 °F 28.0 °F 85% 29.70 in 1.5 mi NW 8.1 mph - 0.02 in Snow Light Snow
3:14 AM 32.0 °F 24.2 °F 28.4 °F 87% 29.69 in 1.0 mi WNW 9.2 mph - 0.02 in Snow Light Snow
3:31 AM 32.0 °F 24.8 °F 28.4 °F 87% 29.68 in 1.8 mi WNW 8.1 mph - 0.03 in Snow Light Snow
3:38 AM 32.0 °F 23.6 °F 26.6 °F 80% 29.69 in 2.5 mi WNW 10.4 mph 18.4 mph 0.03 in Snow Light Snow
3:52 AM 30.9 °F 22.8 °F 26.1 °F 82% 29.71 in 2.0 mi NW 9.2 mph - 0.04 in Snow Light Snow
4:45 AM 30.2 °F 21.3 °F 26.6 °F 86% 29.69 in 1.8 mi WNW 10.4 mph - 0.01 in Snow Light Snow
4:52 AM 30.0 °F 20.5 °F 26.1 °F 85% 29.71 in 2.5 mi WNW 11.5 mph - 0.01 in Snow Light Snow
5:15 AM 30.2 °F 21.3 °F 24.8 °F 80% 29.70 in 3.0 mi NW 10.4 mph - 0.00 in Snow Light Snow
5:44 AM 30.2 °F 21.9 °F 24.8 °F 80% 29.71 in 2.0 mi WNW 9.2 mph - 0.01 in Snow Light Snow
5:52 AM 30.0 °F 21.7 °F 25.0 °F 82% 29.72 in 1.8 mi WNW 9.2 mph - 0.01 in Snow Light Snow
6:12 AM 28.4 °F 19.1 °F 24.8 °F 86% 29.70 in 2.5 mi WNW 10.4 mph - 0.00 in Snow Light Snow
6:26 AM 28.4 °F 19.7 °F 24.8 °F 86% 29.71 in 1.8 mi WNW 9.2 mph 17.3 mph 0.01 in Snow Light Snow
6:31 AM 28.4 °F 18.5 °F 24.8 °F 86% 29.71 in 2.0 mi NW 11.5 mph - 0.01 in Snow Light Snow
6:39 AM 28.4 °F 19.1 °F 24.8 °F 86% 29.71 in 3.0 mi NW 10.4 mph 20.7 mph 0.01 in Snow Light Snow
6:52 AM 28.9 °F 21.1 °F 24.1 °F 82% 29.74 in 2.5 mi NW 8.1 mph - 0.01 in Snow Light Snow
6:59 AM 28.4 °F 21.2 °F 24.8 °F 86% 29.72 in 2.0 mi WNW 6.9 mph - 0.00 in Snow Light Snow
7:36 AM 28.4 °F 20.4 °F 23.0 °F 80% 29.73 in 1.0 mi NW 8.1 mph - 0.01 in Snow Light Snow
7:47 AM 28.4 °F 20.4 °F 23.0 °F 80% 29.73 in 1.5 mi WNW 8.1 mph - 0.01 in Snow Light Snow
7:52 AM 28.9 °F 20.4 °F 23.0 °F 78% 29.75 in 1.8 mi NW 9.2 mph - 0.01 in Snow Light Snow
8:06 AM 28.4 °F 19.1 °F 23.0 °F 80% 29.74 in 1.0 mi WNW 10.4 mph - 0.00 in Snow Light Snow
8:10 AM 28.4 °F 19.1 °F 23.0 °F 80% 29.73 in 1.2 mi NW 10.4 mph - 0.00 in Snow Light Snow
8:44 AM 28.4 °F 19.7 °F 23.0 °F 80% 29.74 in 1.0 mi NW 9.2 mph 18.4 mph 0.01 in Snow Light Snow
8:47 AM 28.4 °F 18.5 °F 23.0 °F 80% 29.74 in 0.8 mi NW 11.5 mph - 0.01 in Snow Light Snow
8:52 AM 28.0 °F 19.3 °F 23.0 °F 81% 29.77 in 0.5 mi NW 9.2 mph - 0.01 in Snow Snow
9:47 AM 28.4 °F 19.7 °F 21.2 °F 74% 29.74 in 1.2 mi NW 9.2 mph 19.6 mph 0.02 in Snow Light Snow
9:52 AM 28.0 °F 18.1 °F 21.9 °F 78% 29.76 in 2.5 mi NW 11.5 mph 19.6 mph 0.02 in Snow Light Snow
9:59 AM 28.4 °F 21.2 °F 21.2 °F 74% 29.74 in 3.0 mi NW 6.9 mph 18.4 mph 0.00 in Snow Light Snow
10:09 AM 28.4 °F 18.5 °F 21.2 °F 74% 29.73 in 2.0 mi NW 11.5 mph - 0.00 in Snow Light Snow
10:17 AM 28.4 °F 20.4 °F 21.2 °F 74% 29.73 in 1.5 mi WNW 8.1 mph 19.6 mph 0.00 in Snow Light Snow
10:28 AM 28.4 °F 19.1 °F 21.2 °F 74% 29.73 in 1.0 mi NW 10.4 mph 18.4 mph 0.00 in Snow Light Snow
10:38 AM 28.4 °F 17.5 °F 21.2 °F 74% 29.73 in 1.5 mi NW 13.8 mph 20.7 mph 0.00 in Snow Light Snow
10:48 AM 28.4 °F 18.5 °F 21.2 °F 74% 29.73 in 3.0 mi NW 11.5 mph 29.9 mph 0.00 in Snow Light Snow
10:49 AM 28.0 °F 17.0 °F 21.9 °F 78% 29.77 in 3.0 mi NW 13.8 mph 29.9 mph 0.00 in Snow Light Snow
11:06 AM 26.6 °F 14.3 °F 21.2 °F 80% 29.74 in 2.5 mi NW 16.1 mph 31.1 mph 0.00 in Snow Light Snow
11:15 AM 26.6 °F 16.2 °F 21.2 °F 80% 29.73 in 4.0 mi NW 11.5 mph 25.3 mph 0.00 in Snow Light Snow
11:52 AM 27.0 °F 15.2 °F 19.9 °F 75% 29.78 in 10.0 mi NW 15.0 mph 26.5 mph 0.00 in   Overcast
12:33 PM 26.6 °F 13.4 °F 19.4 °F 74% 29.74 in 1.8 mi NW 18.4 mph 25.3 mph 0.00 in Snow Light Snow
12:42 PM 24.8 °F 14.0 °F 19.4 °F 80% 29.75 in 3.0 mi NW 11.5 mph 31.1 mph 0.00 in Snow Light Snow
12:52 PM 25.0 °F 12.2 °F 18.0 °F 75% 29.81 in 5.0 mi NW 16.1 mph 26.5 mph 0.00 in Snow Light Snow
1:21 PM 24.8 °F 11.5 °F 17.6 °F 74% 29.76 in 2.0 mi NW 17.3 mph 29.9 mph 0.00 in Snow Light Snow
1:28 PM 24.8 °F 13.4 °F 17.6 °F 74% 29.76 in 1.5 mi NW 12.7 mph 26.5 mph 0.00 in Snow Light Snow
1:52 PM 24.1 °F 11.0 °F 17.1 °F 75% 29.83 in 2.0 mi NW 16.1 mph 31.1 mph 0.00 in Snow Light Snow
2:07 PM 24.8 °F 11.5 °F 17.6 °F 74% 29.78 in 1.5 mi NW 17.3 mph 25.3 mph 0.00 in Snow Light Snow
2:25 PM 24.8 °F 10.7 °F 15.8 °F 69% 29.79 in 3.0 mi NW 19.6 mph 27.6 mph 0.00 in Snow Light Snow
2:37 PM 24.8 °F 12.9 °F 15.8 °F 69% 29.80 in 9.0 mi NW 13.8 mph 20.7 mph 0.00 in Snow Light Snow
2:52 PM 24.1 °F 12.0 °F 15.1 °F 69% 29.87 in 6.0 mi WNW 13.8 mph 27.6 mph 0.00 in Snow Light Snow
3:36 PM 23.0 °F 10.6 °F 14.0 °F 68% 29.85 in 1.5 mi WNW 13.8 mph 25.3 mph 0.00 in Snow Light Snow
3:44 PM 21.2 °F 10.1 °F 14.0 °F 74% 29.86 in 1.0 mi NW 10.4 mph 28.8 mph 0.00 in Snow Light Snow
3:47 PM 23.0 °F 11.1 °F 14.0 °F 68% 29.86 in 2.0 mi WNW 12.7 mph 28.8 mph 0.00 in Snow Light Snow
3:52 PM 23.0 °F 10.6 °F 14.0 °F 68% 29.92 in 3.0 mi NW 13.8 mph 27.6 mph 0.00 in Snow Light Snow
4:04 PM 23.0 °F 10.1 °F 14.0 °F 68% 29.87 in 3.0 mi WNW 15.0 mph 27.6 mph 0.00 in Snow Light Snow
4:44 PM 21.2 °F 9.5 °F 14.0 °F 74% 29.90 in 5.0 mi WNW 11.5 mph 19.6 mph 0.00 in Snow Light Snow
4:50 PM 21.2 °F 10.9 °F 15.8 °F 80% 29.90 in 1.5 mi WNW 9.2 mph 19.6 mph 0.00 in Snow Light Snow
4:52 PM 21.9 °F 9.8 °F 15.1 °F 75% 29.98 in 1.0 mi WNW 12.7 mph 19.6 mph 0.00 in Snow Light Snow
4:55 PM 21.2 °F 11.7 °F 15.8 °F 80% 29.91 in 0.8 mi WNW 8.1 mph 19.6 mph 0.00 in Snow Light Snow
5:12 PM 21.2 °F 6.8 °F 15.8 °F 80% 29.92 in 1.2 mi WNW 17.3 mph 26.5 mph 0.00 in Snow Light Snow
5:16 PM 21.2 °F 7.8 °F 14.0 °F 74% 29.92 in 3.0 mi NW 15.0 mph 26.5 mph 0.00 in Snow Light Snow
5:52 PM 21.9 °F 9.8 °F 14.0 °F 72% 30.02 in 2.5 mi NW 12.7 mph 19.6 mph 0.00 in Snow Light Snow
6:13 PM 21.2 °F 9.5 °F 15.8 °F 80% 29.96 in 1.2 mi WNW 11.5 mph 21.9 mph 0.00 in Snow Light Snow
6:16 PM 21.2 °F 6.4 °F 15.8 °F 80% 29.96 in 0.8 mi WNW 18.4 mph 27.6 mph 0.00 in Snow Light Snow
6:25 PM 21.2 °F 7.8 °F 14.0 °F 74% 29.97 in 1.2 mi WNW 15.0 mph 26.5 mph 0.00 in Snow Light Snow
6:28 PM 21.2 °F 6.8 °F 14.0 °F 74% 29.97 in 3.0 mi WNW 17.3 mph 25.3 mph 0.00 in Snow Light Snow
6:52 PM 21.0 °F 7.6 °F 12.9 °F 71% 30.06 in 3.0 mi WNW 15.0 mph 26.5 mph 0.00 in Snow Light Snow
6:56 PM 21.2 °F 8.9 °F 14.0 °F 74% 29.99 in 1.8 mi WNW 12.7 mph 26.5 mph 0.00 in Snow Light Snow
7:04 PM 21.2 °F 8.9 °F 12.2 °F 68% 29.99 in 3.0 mi NW 12.7 mph 27.6 mph 0.00 in Snow Light Snow
7:20 PM 21.2 °F 7.3 °F 10.4 °F 63% 30.00 in 10.0 mi WNW 16.1 mph 24.2 mph 0.00 in   Overcast
7:49 PM 21.2 °F 7.8 °F 12.2 °F 68% 30.01 in 2.5 mi NW 15.0 mph 23.0 mph 0.00 in Snow Light Snow
7:52 PM 21.0 °F 9.3 °F 12.0 °F 68% 30.09 in 2.0 mi WNW 11.5 mph 23.0 mph 0.00 in Snow Light Snow
7:55 PM 19.4 °F 6.0 °F 12.2 °F 74% 30.01 in 1.8 mi WNW 13.8 mph 23.0 mph 0.00 in Snow Light Snow
8:06 PM 19.4 °F 3.6 °F 12.2 °F 74% 30.02 in 2.0 mi WNW 19.6 mph 29.9 mph 0.00 in Snow Light Snow
8:15 PM 19.4 °F 5.0 °F 10.4 °F 68% 30.03 in 3.0 mi WNW 16.1 mph 29.9 mph 0.00 in Snow Light Snow
8:31 PM 19.4 °F 8.6 °F 12.2 °F 74% 30.03 in 1.8 mi NW 9.2 mph 21.9 mph 0.00 in Snow Light Snow
8:41 PM 19.4 °F 9.5 °F 12.2 °F 74% 30.04 in 1.8 mi NW 8.1 mph - 0.00 in Snow Light Snow
8:47 PM 19.4 °F 5.5 °F 12.2 °F 74% 30.05 in 2.5 mi WNW 15.0 mph 23.0 mph 0.00 in Snow Light Snow
8:52 PM 19.9 °F 5.7 °F 10.9 °F 68% 30.13 in 4.0 mi WNW 16.1 mph 25.3 mph 0.00 in Snow Light Snow
9:08 PM 19.4 °F 7.2 °F 10.4 °F 68% 30.05 in 9.0 mi WNW 11.5 mph 18.4 mph 0.00 in   Overcast
9:45 PM 19.4 °F 8.6 °F 10.4 °F 68% 30.07 in 9.0 mi WNW 9.2 mph 23.0 mph 0.00 in   Overcast
9:52 PM 19.9 °F 9.3 °F 10.0 °F 65% 30.16 in 8.0 mi WNW 9.2 mph 17.3 mph 0.00 in Snow Light Snow
10:47 PM 19.4 °F 6.0 °F 12.2 °F 74% 30.09 in 5.0 mi WNW 13.8 mph 21.9 mph 0.00 in Snow Light Snow
10:52 PM 19.9 °F 8.6 °F 10.9 °F 68% 30.18 in 7.0 mi WNW 10.4 mph 21.9 mph 0.00 in Snow Light Snow
11:22 PM 19.4 °F 7.2 °F 10.4 °F 68% 30.11 in 6.0 mi WNW 11.5 mph 23.0 mph 0.00 in Snow Light Snow
11:50 PM 19.4 °F 7.2 °F 10.4 °F 68% 30.12 in 9.0 mi NW 11.5 mph 23.0 mph 0.00 in   Overcast
11:52 PM 19.9 °F 7.9 °F 10.0 °F 65% 30.21 in 9.0 mi WNW 11.5 mph 23.0 mph 0.00 in   Overcast